36.52977, -87.35945

Hourly Observations for October 11, 2018

Temp ( °F °C ) Dew Point ( °F °C ) Humidity (%) Winds ( mph kmh ) Pressure ( in mb ) Visibility ( mi km ) Precip ( " mm )
12:52 am 00:52 Cloudy 36 2.2 28 -2.2 73 73 NNE 6 9 30.45 1031 8 12.874752 0 0
1:01 am 01:01 Cloudy 36 2.2 27 -2.8 70 70 NE 10 17 30.48 1032 9 14.484096 0 0
1:52 am 01:52 Cloudy 36 2.2 26 -3.3 67 67 NNE 6 9 30.48 1032 9 14.484096 0 0
2:52 am 02:52 Cloudy 35 1.7 25 -3.9 67 67 NNE 8 13 30.48 1032 9 14.484096 0 0
3:23 am 03:23 Cloudy 34 1.1 25 -3.9 70 70 NNE 7 11 30.48 1032 9 14.484096 0 0
3:52 am 03:52 Cloudy 34 1.1 24 -4.4 67 67 NNE 12 19 30.45 1031 10 16.09344 0 0
4:20 am 04:20 Cloudy 34 1.1 24 -4.4 67 67 NE 6 9 30.5 1033 10 16.09344 0 0
4:52 am 04:52 Cloudy 34 1.1 24 -4.4 67 67 NE 7 11 30.48 1032 10 16.09344 0 0
5:31 am 05:31 Cloudy 34 1.1 23 -5 64 64 NE 7 11 30.53 1034 10 16.09344 0 0
5:52 am 05:52 Cloudy 34 1.1 23 -5 64 64 NE 9 15 30.5 1033 10 16.09344 0 0
6:52 am 06:52 Cloudy 34 1.1 22 -5.6 61 61 ENE 10 17 30.48 1032 10 16.09344 0 0
7:52 am 07:52 Cloudy 34 1.1 21 -6.1 59 59 NE 12 19 30.48 1032 10 16.09344 0 0
8:52 am 08:52 Cloudy 34 1.1 20 -6.7 56 56 NE 10 17 30.48 1032 10 16.09344 0 0
9:52 am 09:52 Cloudy 35 1.7 20 -6.7 54 54 ENE 13 20 30.48 1032 10 16.09344 0 0
10:52 am 10:52 Cloudy 36 2.2 20 -6.7 52 52 ENE 14 22 30.45 1031 10 16.09344 0 0
11:52 am 11:52 Cloudy 37 2.8 20 -6.7 50 50 ENE 16 26 30.42 1030 10 16.09344 0 0
12:52 pm 12:52 Cloudy 37 2.8 21 -6.1 52 52 NE 13 20 30.39 1029 10 16.09344 0 0
1:52 pm 13:52 Cloudy 36 2.2 21 -6.1 55 55 NE 15 24 30.36 1028 10 16.09344 0 0
2:52 pm 14:52 Cloudy 35 1.7 22 -5.6 59 59 NE 10 17 30.36 1028 10 16.09344 0 0
3:52 pm 15:52 Cloudy 35 1.7 22 -5.6 59 59 NE 15 24 30.33 1027 10 16.09344 0 0
4:52 pm 16:52 Cloudy 34 1.1 22 -5.6 61 61 NE 13 20 30.33 1027 10 16.09344 0 0
5:52 pm 17:52 Cloudy 34 1.1 21 -6.1 59 59 NE 16 26 30.33 1027 10 16.09344 0 0
6:52 pm 18:52 Cloudy 33 0.6 23 -5 66 66 ENE 15 24 30.3 1026 10 16.09344 0 0
7:52 pm 19:52 Cloudy 33 0.6 23 -5 66 66 ENE 14 22 30.27 1025 9 14.484096 0.001 0.001
8:52 pm 20:52 Cloudy 32 0 24 -4.4 73 73 ENE 13 20 30.27 1025 8 12.874752 0.001 0.001
9:52 pm 21:52 Cloudy 32 0 25 -3.9 75 75 NE 10 17 30.27 1025 5 8.04672 0.02 0.508
10:34 pm 22:34 Cloudy with Light Freezing Rain 32 0 26 -3.3 79 79 NE 10 17 30.27 1025 5 8.04672 0.02 0.508
10:52 pm 22:52 Cloudy with Light Freezing Rain 32 0 26 -3.3 79 79 NE 12 19 30.24 1024 6 9.656064 0.03 0.762
11:43 pm 23:43 Cloudy 32 0 26 -3.3 79 79 NE 10 17 30.24 1024 7 11.265408 0.02 0.508
11:52 pm 23:52 Cloudy 32 0 26 -3.3 79 79 NE 8 13 30.21 1023 7 11.265408 0.02 0.508

Powered by AerisWeather